Content
SEND FEEDBACK

Daily
Averages
Monthly
Summary
United States of America

CHESTERFIELD, MISSOURI


Home > North America > United States > Missouri
Elevation: 170 meters     Latitude: 38 41N     Longitude: 090 31W

WEATHER
 
SELECT A DAY
Number of Records: 203,542;   Date Range: 1/1/95 - 8/30/14
 
SHARE

PRINT THIS DATA

[ ← Previous Day ]
WEATHER ALMANAC - 17 APRIL, 2013
[ Next Day → ]
[ °F ]   °C
Weather ElementAverageHighLow
Temperature16.7 °C29.4 °C (4:51 pm)10 °C (5:21 am)
Dewpoint12.3 °C18.9 °C (2:51 pm)7.2 °C (1:51 am)
Humidity77.1 %94 % (8:36 am)46 % (4:51 pm)
Barometer1014.9 hPa1020.3 hPa (1:51 am)1004.1 hPa (11:51 pm)
Wind Speed19.3 km/h37 km/h (4:51 pm)
Wind Gust46.3 km/h (3:51 pm)
Weather ElementAverage
Visibility9.2 km
Wind DirectionESE (122.3 °)

Weather ElementTotal
Precipitation0.25 mm
Cooling Degree Days1.4 (Base 18.3)
Growing Degree Days9.7 (Base 10)
Averaged from 39 records on 17 April, 2013
WEATHER CONDITIONS BREAKOUT
WIND DIRECTION BREAKOUT
WEATHER BY HOUR - 17 APRIL, 2013
[ °F ]   °C
Local TimeTemperatureDewpointHumidityBarometerVisibilityWind DirectionWind SpeedGust SpeedPrecipitationEventsConditions
1:51 AM10.6 °C7.2 °C80 %1020.3 hPa16.1 kmENE (60°)7.4 km/hOvercast
2:38 AM11 °C8 °C82 %1019.6 hPa14.5 kmENE (70°)9.3 km/hOvercast
2:51 AM10.6 °C7.8 °C83 %1020 hPa14.5 kmENE (70°)11.1 km/hOvercast
3:25 AM11 °C8 °C82 %1019.6 hPa16.1 kmNE (50°)9.3 km/hOvercast
3:51 AM10.6 °C7.8 °C83 %1019.6 hPa16.1 kmENE (60°)11.1 km/hOvercast
4:32 AM11 °C8 °C82 %1019.3 hPa12.9 kmEast (90°)14.8 km/hOvercast
4:51 AM10.6 °C8.3 °C86 %1019.3 hPa9.7 kmEast (90°)13 km/hOvercast
5:04 AM11 °C8 °C82 %1018.6 hPa6.4 kmEast (90°)16.7 km/h0 mmLight Drizzle
5:21 AM10 °C8 °C87 %1018.6 hPa4.8 kmEast (100°)14.8 km/h0 mmLight Drizzle
5:51 AM10.6 °C8.9 °C89 %1017.9 hPa4.8 kmEast (80°)14.8 km/h0 mmLight Drizzle
6:12 AM11 °C9 °C88 %1017.9 hPa4.8 kmESE (120°)16.7 km/h0 mmLight Drizzle
6:48 AM11 °C9 °C88 %1018.3 hPa4 kmESE (110°)13 km/h0 mmLight Drizzle
6:51 AM10.6 °C8.9 °C89 %1018.3 hPa4 kmEast (100°)13 km/h0 mmLight Drizzle
7:22 AM11 °C9 °C88 %1018.3 hPa2.4 kmEast (100°)16.7 km/h0 mmLight Drizzle
7:49 AM11 °C9 °C88 %1018.6 hPa0.8 kmEast (90°)11.1 km/h0 mmFogFog
7:51 AM11.1 °C9.4 °C89 %1019 hPa0.8 kmEast (100°)11.1 km/h0 mmFogFog
8:36 AM11 °C10 °C94 %1018.6 hPa0.3 kmEast (90°)14.8 km/hFogFog
8:48 AM11 °C10 °C94 %1018.3 hPa0.3 kmESE (110°)14.8 km/hFogFog
8:51 AM11.1 °C10 °C93 %1018.3 hPa0.3 kmEast (100°)13 km/hFogFog
9:27 AM12 °C11 °C94 %1017.6 hPa1.3 kmSE (130°)20.4 km/hOvercast
9:51 AM12.8 °C11.7 °C93 %1017.6 hPa1.6 kmSE (130°)25.9 km/hOvercast
10:33 AM14 °C12 °C88 %1016.6 hPa3.2 kmSE (130°)16.7 km/hOvercast
10:51 AM15.6 °C12.8 °C83 %1016.3 hPa4 kmSE (140°)20.4 km/hHaze
11:11 AM17 °C14 °C82 %1015.9 hPa4.8 kmSE (140°)20.4 km/hHaze
11:25 AM18 °C14 °C77 %1015.6 hPa8 kmSSE (160°)20.4 km/h31.5 km/hHaze
11:39 AM19 °C15 °C78 %1015.6 hPa8 kmSouth (170°)20.4 km/hHaze
11:51 AM20 °C15.6 °C76 %1015.2 hPa8 kmSouth (180°)18.5 km/hHaze
12:51 PM22.8 °C17.2 °C71 %1014.2 hPa12.9 kmSSE (150°)18.5 km/hMostly Cloudy
1:51 PM24.4 °C17.2 °C64 %1012.2 hPa14.5 kmSouth (170°)33.3 km/h42.6 km/hMostly Cloudy
2:51 PM27.2 °C18.9 °C60 %1011.2 hPa14.5 kmSSE (150°)25.9 km/h37 km/h0.25 mmMostly Cloudy
3:51 PM28.9 °C17.8 °C51 %1009.5 hPa16.1 kmSSE (160°)33.3 km/h46.3 km/hMostly Cloudy
4:51 PM29.4 °C16.7 °C46 %1008.8 hPa16.1 kmSSE (160°)37 km/h46.3 km/hMostly Cloudy
5:51 PM28.3 °C18.3 °C54 %1007.8 hPa16.1 kmSE (140°)27.8 km/h46.3 km/hMostly Cloudy
6:51 PM27.2 °C17.8 °C56 %1006.8 hPa16.1 kmSSE (150°)22.2 km/hMostly Cloudy
7:51 PM27.2 °C15 °C47 %1006.1 hPa16.1 kmSSE (160°)24.1 km/h37 km/hOvercast
8:51 PM26.1 °C17.2 °C58 %1006.1 hPa16.1 kmSSE (150°)29.6 km/h37 km/hOvercast
9:51 PM25.6 °C17.2 °C60 %1006.1 hPa16.1 kmSouth (170°)25.9 km/h42.6 km/hOvercast
10:51 PM25.6 °C17.2 °C60 %1005.1 hPa16.1 kmSouth (180°)27.8 km/h42.6 km/hOvercast
11:51 PM25 °C17.2 °C62 %1004.1 hPa16.1 kmSouth (170°)35.2 km/h40.7 km/hOvercast
Hourly data recorded from KSTL, located 0 kilometers away from Chesterfield, Missouri







STORIES FROM OUR PARTNERS